| time (UTC) | temp F | wind direction | speed MPH | gust MPH | rain 1hr in | rain 24hr in | rain mn in | humidity % | barometer mb |
| 20260507200723 | 61 | 194 | 4.0 | 0.0 | 0.00 | 0.00 | 0.00 | 46 | |
| 20260507195723 | 62 | 219 | 5.0 | 0.0 | 0.00 | 0.00 | 0.00 | 43 | |
| 20260507194723 | 62 | 208 | 3.0 | 0.0 | 0.00 | 0.00 | 0.00 | 43 | |
| 20260507193723 | 62 | 249 | 2.0 | 0.0 | 0.00 | 0.00 | 0.00 | 44 | |
| 20260507192652 | 61 | 173 | 2.0 | 0.0 | 0.00 | 0.00 | 0.00 | 43 | |
| 20260507191652 | 62 | 194 | 5.0 | 0.0 | 0.00 | 0.00 | 0.00 | 42 | |
| 20260507190652 | 62 | 180 | 0.0 | 0.0 | 0.00 | 0.00 | 0.00 | 47 | |
| 20260507185652 | 62 | 193 | 4.0 | 0.0 | 0.00 | 0.00 | 0.00 | 44 | |
| 20260507184653 | 62 | 181 | 0.0 | 0.0 | 0.00 | 0.00 | 0.00 | 44 | |
| 20260507183653 | 62 | 257 | 3.0 | 0.0 | 0.00 | 0.00 | 0.00 | 44 | |
| 20260507182652 | 62 | 259 | 0.0 | 0.0 | 0.00 | 0.00 | 0.00 | 45 | |
| 20260507181652 | 61 | 193 | 1.0 | 0.0 | 0.00 | 0.00 | 0.00 | 42 | |
| 20260507180652 | 61 | 197 | 3.0 | 0.0 | 0.00 | 0.00 | 0.00 | 44 | |
| 20260507175652 | 61 | 169 | 3.0 | 0.0 | 0.00 | 0.00 | 0.00 | 43 | |
| 20260507174652 | 61 | 239 | 0.0 | 0.0 | 0.00 | 0.00 | 0.00 | 47 | |
| 20260507173652 | 61 | 167 | 2.0 | 0.0 | 0.00 | 0.00 | 0.00 | 47 | |
| 20260507172652 | 60 | 259 | 2.0 | 0.0 | 0.00 | 0.00 | 0.00 | 47 | |
| 20260507171627 | 60 | 166 | 1.0 | 0.0 | 0.00 | 0.00 | 0.00 | 51 | |
| 20260507170627 | 60 | 193 | 2.0 | 0.0 | 0.00 | 0.00 | 0.00 | 47 | |
| 20260507165627 | 59 | 212 | 3.0 | 0.0 | 0.00 | 0.00 | 0.00 | 48 | |
| 20260507164627 | 60 | 190 | 2.0 | 0.0 | 0.00 | 0.00 | 0.00 | 49 | |
| 20260507163627 | 59 | 219 | 0.0 | 0.0 | 0.00 | 0.00 | 0.00 | 49 | |
| 20260507162626 | 59 | 83 | 0.0 | 0.0 | 0.00 | 0.00 | 0.00 | 50 | |
| 20260507161626 | 59 | 122 | 0.0 | 0.0 | 0.00 | 0.00 | 0.00 | 49 | |
| 20260507160626 | 58 | 174 | 3.0 | 0.0 | 0.00 | 0.00 | 0.00 | 52 | |
| 20260507155626 | 59 | 131 | 0.0 | 0.0 | 0.00 | 0.00 | 0.00 | 53 | |
| 20260507154626 | 59 | 226 | 3.0 | 0.0 | 0.00 | 0.00 | 0.00 | 52 | |
| 20260507153626 | 57 | 201 | 3.0 | 0.0 | 0.00 | 0.00 | 0.00 | 55 | |
| 20260507152626 | 56 | 201 | 0.0 | 0.0 | 0.00 | 0.00 | 0.00 | 54 | |
| 20260507151626 | 56 | 212 | 2.0 | 0.0 | 0.00 | 0.00 | 0.00 | 56 | |
| 20260507150625 | 56 | 232 | 0.0 | 0.0 | 0.00 | 0.00 | 0.00 | 54 | |
| 20260507145625 | 55 | 218 | 0.0 | 0.0 | 0.00 | 0.00 | 0.00 | 56 | |
| 20260507144625 | 55 | 217 | 0.0 | 0.0 | 0.00 | 0.00 | 0.00 | 58 | |
| 20260507143625 | 54 | 212 | 3.0 | 0.0 | 0.00 | 0.00 | 0.00 | 56 | |
| 20260507142625 | 54 | 212 | 3.0 | 0.0 | 0.00 | 0.00 | 0.00 | 61 | |
| 20260507141624 | 53 | 187 | 0.0 | 0.0 | 0.00 | 0.00 | 0.00 | 66 | |
| 20260507140624 | 52 | 187 | 0.0 | 0.0 | 0.00 | 0.00 | 0.00 | 64 | |
| 20260507135624 | 52 | 214 | 2.0 | 0.0 | 0.00 | 0.00 | 0.00 | 66 | |
| 20260507134624 | 51 | 170 | 0.0 | 0.0 | 0.00 | 0.00 | 0.00 | 65 | |
| 20260507133624 | 51 | 158 | 0.0 | 0.0 | 0.00 | 0.00 | 0.00 | 67 | |
| 20260507132624 | 51 | 177 | 0.0 | 0.0 | 0.00 | 0.00 | 0.00 | 66 | |
| 20260507131624 | 51 | 215 | 0.0 | 0.0 | 0.00 | 0.00 | 0.00 | 69 | |
| 20260507130623 | 51 | 224 | 1.0 | 0.0 | 0.00 | 0.00 | 0.00 | 71 | |
| 20260507125623 | 50 | 205 | 0.0 | 0.0 | 0.00 | 0.00 | 0.00 | 71 | |
| 20260507124623 | 50 | 205 | 0.0 | 0.0 | 0.00 | 0.00 | 0.00 | 72 | |
| 20260507123623 | 50 | 205 | 0.0 | 0.0 | 0.00 | 0.00 | 0.00 | 72 | |
| 20260507122623 | 49 | 205 | 0.0 | 0.0 | 0.00 | 0.00 | 0.00 | 73 | |
| 20260507121623 | 49 | 205 | 0.0 | 0.0 | 0.00 | 0.00 | 0.00 | 72 | |
| 20260507120622 | 49 | 205 | 0.0 | 0.0 | 0.00 | 0.00 | 0.00 | 74 | |
| 20260507115622 | 49 | 205 | 0.0 | 0.0 | 0.00 | 0.00 | 0.00 | 40 | |
| 20260507114622 | 48 | 205 | 0.0 | 0.0 | 0.00 | 0.00 | 0.00 | 77 | |
| 20260507113622 | 48 | 205 | 0.0 | 0.0 | 0.00 | 0.00 | 0.00 | 78 | |
| 20260507112622 | 48 | 205 | 0.0 | 0.0 | 0.00 | 0.00 | 0.00 | 80 | |
| 20260507111552 | 48 | 205 | 0.0 | 0.0 | 0.00 | 0.00 | 0.00 | 81 | |
| 20260507110551 | 48 | 205 | 0.0 | 0.0 | 0.00 | 0.00 | 0.00 | 83 | |
| 20260507105551 | 48 | 205 | 0.0 | 0.0 | 0.00 | 0.00 | 0.00 | 84 | |
| 20260507104551 | 48 | 205 | 0.0 | 0.0 | 0.00 | 0.00 | 0.00 | 84 | |
| 20260507103551 | 48 | 205 | 0.0 | 0.0 | 0.00 | 0.00 | 0.00 | 84 | |
| 20260507102551 | 49 | 205 | 0.0 | 0.0 | 0.00 | 0.00 | 0.00 | 84 | |
| 20260507101551 | 49 | 205 | 0.0 | 0.0 | 0.00 | 0.00 | 0.00 | 83 | |
| 20260507100551 | 49 | 205 | 0.0 | 0.0 | 0.00 | 0.00 | 0.00 | 85 | |
| 20260507095551 | 49 | 205 | 0.0 | 0.0 | 0.00 | 0.00 | 0.00 | 86 | |
| 20260507094550 | 49 | 205 | 0.0 | 0.0 | 0.00 | 0.00 | 0.00 | 86 | |
| 20260507093550 | 49 | 205 | 0.0 | 0.0 | 0.00 | 0.00 | 0.00 | 86 | |
| 20260507092550 | 49 | 205 | 0.0 | 0.0 | 0.00 | 0.00 | 0.00 | 87 | |
| 20260507091550 | 50 | 205 | 0.0 | 0.0 | 0.00 | 0.00 | 0.00 | 87 | |
| 20260507090550 | 49 | 205 | 0.0 | 0.0 | 0.00 | 0.00 | 0.00 | 86 | |
| 20260507085550 | 49 | 205 | 0.0 | 0.0 | 0.00 | 0.00 | 0.00 | 87 | |
| 20260507084549 | 50 | 205 | 0.0 | 0.0 | 0.00 | 0.00 | 0.00 | 87 | |
| 20260507083549 | 49 | 205 | 0.0 | 0.0 | 0.00 | 0.00 | 0.00 | 87 | |
| 20260507082549 | 50 | 205 | 0.0 | 0.0 | 0.00 | 0.00 | 0.00 | 87 | |
| 20260507081549 | 50 | 205 | 0.0 | 0.0 | 0.00 | 0.00 | 0.00 | 86 | |
| 20260507080549 | 50 | 205 | 0.0 | 0.0 | 0.00 | 0.00 | 0.00 | 86 | |
| 20260507075549 | 50 | 205 | 0.0 | 0.0 | 0.00 | 0.00 | 0.00 | 89 | |
| 20260507074548 | 50 | 205 | 0.0 | 0.0 | 0.00 | 0.00 | 0.00 | 91 | |
| 20260507073548 | 50 | 205 | 0.0 | 0.0 | 0.00 | 0.00 | 0.00 | 92 | |
| 20260507072548 | 50 | 205 | 0.0 | 0.0 | 0.00 | 0.00 | 0.00 | 92 | |
| 20260507071548 | 50 | 205 | 0.0 | 0.0 | 0.00 | 0.00 | 0.00 | 92 | |
| 20260507070548 | 50 | 205 | 0.0 | 0.0 | 0.00 | 0.00 | 0.00 | 92 | |
| 20260507065548 | 50 | 205 | 0.0 | 0.0 | 0.00 | 0.00 | 0.00 | 92 | |
| 20260507064548 | 50 | 205 | 0.0 | 0.0 | 0.00 | 0.00 | 0.00 | 92 | |
| 20260507063547 | 50 | 205 | 0.0 | 0.0 | 0.00 | 0.00 | 0.00 | 92 | |
| 20260507062547 | 50 | 205 | 0.0 | 0.0 | 0.00 | 0.00 | 0.00 | 92 | |
| 20260507061547 | 50 | 205 | 0.0 | 0.0 | 0.00 | 0.00 | 0.00 | 92 | |
| 20260507060547 | 50 | 205 | 0.0 | 0.0 | 0.00 | 0.00 | 0.00 | 91 | |
| 20260507055547 | 50 | 205 | 0.0 | 0.0 | 0.00 | 0.00 | 0.00 | 92 | |
| 20260507054517 | 50 | 205 | 0.0 | 0.0 | 0.00 | 0.00 | 0.00 | 91 | |
| 20260507053517 | 50 | 205 | 0.0 | 0.0 | 0.00 | 0.00 | 0.00 | 91 | |
| 20260507052516 | 50 | 205 | 0.0 | 0.0 | 0.00 | 0.00 | 0.00 | 92 | |
| 20260507051517 | 50 | 242 | 0.0 | 0.0 | 0.00 | 0.00 | 0.00 | 92 | |
| 20260507050516 | 50 | 242 | 0.0 | 0.0 | 0.00 | 0.00 | 0.00 | 92 | |
| 20260507045516 | 50 | 242 | 0.0 | 0.0 | 0.00 | 0.00 | 0.00 | 92 | |
| 20260507044516 | 50 | 242 | 0.0 | 0.0 | 0.00 | 0.00 | 0.00 | 92 | |
| 20260507043516 | 50 | 242 | 0.0 | 0.0 | 0.00 | 0.00 | 0.00 | 92 | |
| 20260507042516 | 50 | 225 | 1.0 | 0.0 | 0.00 | 0.00 | 0.00 | 93 | |
| 20260507041515 | 50 | 224 | 0.0 | 0.0 | 0.00 | 0.00 | 0.00 | 93 | |
| 20260507040445 | 50 | 224 | 0.0 | 0.0 | 0.00 | 0.00 | 0.00 | 93 | |
| 20260507035445 | 51 | 224 | 0.0 | 0.0 | 0.00 | 0.00 | 0.00 | 93 | |
| 20260507034445 | 50 | 224 | 0.0 | 0.0 | 0.00 | 0.00 | 0.00 | 93 | |
| 20260507033445 | 50 | 224 | 0.0 | 0.0 | 0.00 | 0.00 | 0.00 | 93 | |
| 20260507032444 | 51 | 224 | 0.0 | 0.0 | 0.00 | 0.00 | 0.00 | 93 | |
| 20260507031444 | 51 | 224 | 0.0 | 0.0 | 0.00 | 0.00 | 0.00 | 93 | |
| 20260507030444 | 51 | 224 | 0.0 | 0.0 | 0.00 | 0.00 | 0.00 | 92 | |
| 20260507025444 | 51 | 224 | 0.0 | 0.0 | 0.00 | 0.00 | 0.00 | 91 | |
| 20260507024444 | 52 | 224 | 0.0 | 0.0 | 0.00 | 0.00 | 0.00 | 90 | |
| 20260507023444 | 52 | 217 | 0.0 | 0.0 | 0.00 | 0.00 | 0.00 | 90 | |
| 20260507022444 | 52 | 217 | 0.0 | 0.0 | 0.00 | 0.00 | 0.00 | 90 | |
| 20260507021443 | 52 | 217 | 0.0 | 0.0 | 0.00 | 0.00 | 0.00 | 90 | |
| 20260507020443 | 52 | 202 | 0.0 | 0.0 | 0.00 | 0.00 | 0.00 | 90 | |
| 20260507015413 | 52 | 233 | 1.0 | 0.0 | 0.00 | 0.00 | 0.00 | 89 | |
| 20260507014413 | 52 | 225 | 0.0 | 0.0 | 0.00 | 0.00 | 0.00 | 88 | |
| 20260507013413 | 52 | 238 | 2.0 | 0.0 | 0.00 | 0.00 | 0.00 | 89 | |
| 20260507012413 | 52 | 215 | 1.0 | 0.0 | 0.00 | 0.00 | 0.00 | 89 | |
| 20260507011413 | 53 | 245 | 0.0 | 0.0 | 0.00 | 0.00 | 0.00 | 90 | |
| 20260507010413 | 54 | 214 | 0.0 | 0.0 | 0.00 | 0.00 | 0.00 | 89 | |
| 20260507005412 | 54 | 214 | 0.0 | 0.0 | 0.00 | 0.00 | 0.00 | 89 | |
| 20260507004412 | 54 | 214 | 0.0 | 0.0 | 0.00 | 0.00 | 0.00 | 89 | |
| 20260507003412 | 54 | 166 | 0.0 | 0.0 | 0.00 | 0.00 | 0.00 | 88 | |
| 20260507002412 | 54 | 166 | 0.0 | 0.0 | 0.00 | 0.00 | 0.00 | 88 | |
| 20260507001412 | 54 | 191 | 2.0 | 0.0 | 0.00 | 0.00 | 0.00 | 88 | |
| 20260507000412 | 54 | 186 | 0.0 | 0.0 | 0.00 | 0.00 | 0.00 | 88 | |
| 20260506235412 | 54 | 194 | 3.0 | 0.0 | 0.00 | 0.00 | 0.00 | 88 | |
| 20260506234411 | 54 | 200 | 3.0 | 0.0 | 0.00 | 0.00 | 0.00 | 89 | |
| 20260506233411 | 54 | 181 | 0.0 | 0.0 | 0.00 | 0.00 | 0.00 | 88 | |
| 20260506232411 | 55 | 195 | 0.0 | 0.0 | 0.00 | 0.00 | 0.00 | 89 | |
| 20260506231411 | 55 | 210 | 0.0 | 0.0 | 0.00 | 0.00 | 0.00 | 89 | |
| 20260506230411 | 55 | 219 | 0.0 | 0.0 | 0.00 | 0.00 | 0.00 | 88 | |
| 20260506225410 | 56 | 229 | 0.0 | 0.0 | 0.00 | 0.00 | 0.00 | 87 | |
| 20260506224410 | 56 | 231 | 1.0 | 0.0 | 0.00 | 0.00 | 0.00 | 87 | |
| 20260506223410 | 55 | 205 | 2.0 | 0.0 | 0.00 | 0.00 | 0.00 | 86 | |
| 20260506222410 | 56 | 207 | 2.0 | 0.0 | 0.00 | 0.00 | 0.00 | 86 | |
| 20260506221410 | 57 | 233 | 3.0 | 0.0 | 0.00 | 0.00 | 0.00 | 86 | |
| 20260506220410 | 56 | 207 | 2.0 | 0.0 | 0.00 | 0.00 | 0.00 | 87 | |
| 20260506215409 | 57 | 184 | 2.0 | 0.0 | 0.00 | 0.00 | 0.00 | 86 | |
| 20260506214409 | 57 | 169 | 1.0 | 0.0 | 0.00 | 0.00 | 0.00 | 86 | |
| 20260506213409 | 57 | 202 | 3.0 | 0.0 | 0.00 | 0.00 | 0.00 | 85 | |
| 20260506212409 | 57 | 218 | 4.0 | 0.0 | 0.00 | 0.00 | 0.00 | 85 | |
| 20260506211409 | 57 | 208 | 1.0 | 0.0 | 0.00 | 0.00 | 0.00 | 86 | |
| 20260506210409 | 58 | 198 | 3.0 | 0.0 | 0.00 | 0.00 | 0.00 | 86 | |
| 20260506205409 | 58 | 226 | 2.0 | 0.0 | 0.00 | 0.00 | 0.00 | 85 | |
| 20260506204408 | 58 | 217 | 3.0 | 0.0 | 0.00 | 0.00 | 0.00 | 85 | |
| 20260506203408 | 59 | 195 | 2.0 | 0.0 | 0.00 | 0.00 | 0.00 | 86 | |
| 20260506202408 | 59 | 152 | 0.0 | 0.0 | 0.00 | 0.00 | 0.00 | 85 |